Location: Darmstadt
(49.8706°N, 8.6494°E)
Time: 06:59:53
(UTC+01:00)

Cosmos 2082 - Pass Details

Date: 31 October 2020
Orbit: 832 x 857 km, 71.0° (Epoch: 03 December)

Event Time Altitude Azimuth Distance (km) Brightness Sun altitude
Rises 18:42:09 0° 329° (NNW) 3,438 7.3 -16.3°
Reaches altitude 10° 18:44:38 10° 326° (NW) 2,499 6.6 -16.7°
Maximum altitude 18:50:18 63° 247° (WSW) 957 4.2 -17.6°
Drops below altitude 10° 18:55:56 10° 168° (SSE) 2,483 6.0 -18.5°
Sets 18:58:23 0° 165° (SSE) 3,414 6.7 -18.9°
